Home   Weather   Sarajevo   Past weeks
Flag for Bosnia-Herzegovina

Past Weather in Sarajevo, Bosnia-Herzegovina — Yesterday and Last 2 Weeks

Now
77 °F

Scattered clouds.


Feels Like: 79 °F
Forecast: 79 / 59 °F
Wind: 1 mph from North

Location: Sarajevo / Butmir

Current Time: Jun 19, 2019 at 9:15:29 pm

Latest Report: Jun 19, 2019 at 8:30 pm


Visibility: N/A

Pressure: 29.92 "Hg (28.17 "Hg at 526m altitude)

Humidity: 51%

Dew Point: 57 °F

Location of SarajevoLocation

Past Weather in Sarajevo — Graph

°F

Sarajevo Temperature Yesterday

Maximum temperature yesterday: 84 °F (at 1:30 pm)
Minimum temperature yesterday: 59 °F (at 4:00 am)
Average temperature yesterday: 70 °F

High & Low Weather Summary for the Past Weeks

 TemperatureHumidityPressure
High91 °F (Jun 12, 3:30 pm)100% (Jun 4, 8:30 pm)30.27 "Hg (Jun 4, 8:30 pm)
Low54 °F (Jun 7, 5:00 am)21% (Jun 12, 4:00 pm)29.86 "Hg (Jun 5, 2:00 pm)
Average72 °F67%30.03 "Hg
* Reported Jun 4 8:00 pm — Jun 19 8:00 pm, Sarajevo. Weather by CustomWeather, © 2019

Note: Actual official high and low records may vary slightly from our data, if they occured in-between our weather recording intervals... More about our weather records

Advertising

Sarajevo Weather History for the Previous 24 Hours

Scroll right to see more
 ConditionsComfort  
Time TempWeatherWind HumidityBarometerVisibility
8:00 pm
Wed, Jun 19
79 °FScattered clouds.7 mph42%29.89 "HgN/A
7:30 pm82 °FScattered clouds.7 mph37%29.89 "HgN/A
7:00 pm82 °FSunny.8 mph37%29.89 "Hg10 mi
6:30 pm84 °FPassing clouds.9 mph35%29.89 "HgN/A
6:00 pm84 °FPassing clouds.8 mph35%29.89 "HgN/A
5:30 pm84 °FPassing clouds.7 mph35%29.89 "HgN/A
5:00 pm88 °FPassing clouds.3 mph35%29.89 "HgN/A
4:30 pm86 °FScattered clouds.8 mph38%29.92 "HgN/A
4:00 pm84 °FScattered clouds.6 mph37%29.92 "HgN/A
3:30 pm84 °FScattered clouds.3 mph40%29.92 "HgN/A
3:00 pm84 °FScattered clouds.3 mph37%29.92 "HgN/A
2:30 pm82 °FScattered clouds.6 mph37%29.95 "HgN/A
2:00 pm82 °FScattered clouds.6 mph40%29.95 "HgN/A
1:30 pm82 °FPassing clouds.5 mph45%29.95 "HgN/A
1:00 pm81 °FPassing clouds.5 mph39%29.95 "HgN/A
12:30 pm81 °FPassing clouds.6 mph42%29.98 "HgN/A
12:00 pm79 °FPassing clouds.5 mph54%29.98 "HgN/A
11:30 am77 °FPassing clouds.3 mph54%29.98 "HgN/A
11:00 am77 °FPassing clouds.2 mph54%29.98 "HgN/A
10:30 am73 °FPassing clouds.2 mph65%30.01 "HgN/A
10:00 am72 °FPassing clouds.2 mph65%30.01 "HgN/A
9:30 am70 °FPassing clouds.2 mph73%30.01 "HgN/A
9:00 am68 °FPassing clouds.2 mph78%30.01 "HgN/A
8:30 am66 °FPassing clouds.2 mph78%30.01 "HgN/A
8:00 am64 °FPassing clouds.2 mph88%30.01 "Hg5 mi
7:30 am63 °FPassing clouds.3 mph94%30.04 "Hg5 mi
7:00 am61 °FPassing clouds.1 mph94%30.04 "Hg5 mi
6:30 am59 °FPassing clouds.3 mph94%30.04 "Hg5 mi
6:00 am59 °FPassing clouds.2 mph94%30.01 "Hg5 mi
4:00 am61 °FClear.2 mph94%30.01 "Hg10 mi
3:00 am61 °FClear.2 mph94%30.01 "Hg10 mi
2:00 am63 °FClear.3 mph88%30.04 "Hg10 mi
1:00 am63 °FClear.5 mph88%30.04 "Hg10 mi
12:00 am64 °FClear.5 mph83%30.07 "Hg10 mi
11:00 pm
Tue, Jun 18
64 °FPassing clouds.6 mph83%30.07 "HgN/A
10:30 pm64 °FClear.6 mph83%30.04 "Hg10 mi
10:00 pm64 °FClear.6 mph88%30.04 "Hg10 mi
9:30 pm66 °FPassing clouds.5 mph83%30.04 "HgN/A
9:00 pm66 °FPassing clouds.6 mph83%30.04 "HgN/A
Weather by CustomWeather, © 2019

See weather overview